date,time,SUV Intensity [MED/Hr],UV Index,Daily total [MED],Since Last [MED]
24/05/2023,00:02:08,-0.000,0.0,0.0,0.0
24/05/2023,00:03:08,0.000,0.0,0.0,0.0
24/05/2023,00:04:08,0.000,0.0,0.0,0.0
24/05/2023,00:05:08,-0.000,0.0,0.0,0.0
24/05/2023,00:06:08,-0.000,0.0,0.0,0.0
24/05/2023,00:07:08,0.000,0.0,0.0,0.0
24/05/2023,00:08:07,-0.001,0.0,0.0,0.0
24/05/2023,00:09:08,-0.000,0.0,0.0,0.0
24/05/2023,00:10:08,0.000,0.0,0.0,0.0
24/05/2023,00:11:08,0.001,0.0,0.0,0.0
24/05/2023,00:12:08,0.001,0.0,0.0,0.0
24/05/2023,00:13:08,0.001,0.0,0.0,0.0
24/05/2023,00:14:08,0.000,0.0,0.0,0.0
24/05/2023,00:15:08,0.000,0.0,0.0,0.0
24/05/2023,00:16:07,0.001,0.0,0.0,0.0
24/05/2023,00:17:07,0.000,0.0,0.0,0.0
24/05/2023,00:18:08,0.001,0.0,0.0,0.0
24/05/2023,00:19:08,0.000,0.0,0.0,0.0
24/05/2023,00:20:08,0.000,0.0,0.0,0.0
24/05/2023,00:21:08,-0.001,0.0,0.0,0.0
24/05/2023,00:22:08,0.000,0.0,0.0,0.0
24/05/2023,00:23:07,-0.001,0.0,0.0,0.0
24/05/2023,00:24:08,0.001,0.0,0.0,0.0
24/05/2023,00:25:08,0.000,0.0,0.0,0.0
24/05/2023,00:26:08,0.000,0.0,0.0,0.0
24/05/2023,00:27:08,0.000,0.0,0.0,0.0
24/05/2023,00:28:08,0.000,0.0,0.0,0.0
24/05/2023,00:29:08,0.001,0.0,0.0,0.0
24/05/2023,00:30:08,0.001,0.0,0.0,0.0
24/05/2023,00:31:08,0.001,0.0,0.0,0.0
24/05/2023,00:32:08,0.001,0.0,0.0,0.0
24/05/2023,00:33:08,0.000,0.0,0.0,0.0
24/05/2023,00:34:07,0.000,0.0,0.0,0.0
24/05/2023,00:35:29,0.000,0.0,0.0,0.0
24/05/2023,00:37:08,-0.000,0.0,0.0,0.0
24/05/2023,00:38:08,0.000,0.0,0.0,0.0
24/05/2023,00:39:08,0.000,0.0,0.0,0.0
24/05/2023,00:40:07,0.000,0.0,0.0,0.0
24/05/2023,00:41:07,0.001,0.0,0.0,0.0
24/05/2023,00:42:08,-0.000,0.0,0.0,0.0
24/05/2023,00:43:08,0.001,0.0,0.0,0.0
24/05/2023,00:44:08,-0.001,0.0,0.0,0.0
24/05/2023,00:45:08,0.000,0.0,0.0,0.0
24/05/2023,00:46:08,0.000,0.0,0.0,0.0
24/05/2023,00:47:07,0.001,0.0,0.0,0.0
24/05/2023,00:48:08,-0.001,0.0,0.0,0.0
24/05/2023,00:49:08,0.001,0.0,0.0,0.0
24/05/2023,00:50:08,0.000,0.0,0.0,0.0
24/05/2023,00:51:07,0.000,0.0,0.0,0.0
24/05/2023,00:52:08,0.001,0.0,0.0,0.0
24/05/2023,00:53:08,0.001,0.0,0.0,0.0
24/05/2023,00:54:08,0.000,0.0,0.0,0.0
24/05/2023,00:55:08,0.000,0.0,0.0,0.0
24/05/2023,00:56:08,0.002,0.0,0.0,0.0
24/05/2023,00:57:08,0.000,0.0,0.0,0.0
24/05/2023,00:58:08,0.000,0.0,0.0,0.0
24/05/2023,00:59:08,0.001,0.0,0.0,0.0
24/05/2023,01:00:08,0.000,0.0,0.0,0.0
24/05/2023,01:01:08,0.001,0.0,0.0,0.0
24/05/2023,01:02:07,0.000,0.0,0.0,0.0
24/05/2023,01:03:08,-0.000,0.0,0.0,0.0
24/05/2023,01:04:08,0.001,0.0,0.0,0.0
24/05/2023,01:05:08,0.001,0.0,0.0,0.0
24/05/2023,01:06:08,0.000,0.0,0.0,0.0
24/05/2023,01:07:08,0.001,0.0,0.0,0.0
24/05/2023,01:08:08,0.001,0.0,0.0,0.0
24/05/2023,01:09:08,0.001,0.0,0.0,0.0
24/05/2023,01:10:07,0.001,0.0,0.0,0.0
24/05/2023,01:11:07,0.000,0.0,0.0,0.0
24/05/2023,01:12:08,0.001,0.0,0.0,0.0
24/05/2023,01:13:08,0.001,0.0,0.0,0.0
24/05/2023,01:14:08,0.001,0.0,0.0,0.0
24/05/2023,01:15:08,0.001,0.0,0.0,0.0
24/05/2023,01:16:08,0.001,0.0,0.0,0.0
24/05/2023,01:17:08,0.000,0.0,0.0,0.0
24/05/2023,01:18:07,0.000,0.0,0.0,0.0
24/05/2023,01:19:08,0.001,0.0,0.0,0.0
24/05/2023,01:20:08,-0.000,0.0,0.0,0.0
24/05/2023,01:21:07,0.001,0.0,0.0,0.0
24/05/2023,01:22:07,0.001,0.0,0.0,0.0
24/05/2023,01:23:08,0.001,0.0,0.0,0.0
24/05/2023,01:24:08,0.001,0.0,0.0,0.0
24/05/2023,01:25:08,0.000,0.0,0.0,0.0
24/05/2023,01:26:08,0.001,0.0,0.0,0.0
24/05/2023,01:27:08,0.000,0.0,0.0,0.0
24/05/2023,01:28:08,0.001,0.0,0.0,0.0
24/05/2023,01:29:07,0.000,0.0,0.0,0.0
24/05/2023,01:30:08,0.001,0.0,0.0,0.0
24/05/2023,01:31:08,0.000,0.0,0.0,0.0
24/05/2023,01:32:08,0.001,0.0,0.0,0.0
24/05/2023,01:33:08,0.001,0.0,0.0,0.0
24/05/2023,01:34:08,0.001,0.0,0.0,0.0
24/05/2023,01:35:07,0.001,0.0,0.0,0.0
24/05/2023,01:36:08,0.002,0.0,0.0,0.0
24/05/2023,01:37:08,0.000,0.0,0.0,0.0
24/05/2023,01:38:08,0.002,0.0,0.0,0.0
24/05/2023,01:39:08,0.000,0.0,0.0,0.0
24/05/2023,01:40:08,0.001,0.0,0.0,0.0
24/05/2023,01:41:08,0.001,0.0,0.0,0.0
24/05/2023,01:42:07,0.001,0.0,0.0,0.0
24/05/2023,01:43:08,0.000,0.0,0.0,0.0
24/05/2023,01:44:07,0.001,0.0,0.0,0.0
24/05/2023,01:45:08,0.001,0.0,0.0,0.0
24/05/2023,01:46:08,0.001,0.0,0.0,0.0
24/05/2023,01:47:08,0.001,0.0,0.0,0.0
24/05/2023,01:48:08,0.002,0.0,0.0,0.0
24/05/2023,01:49:08,0.001,0.0,0.0,0.0
24/05/2023,01:50:08,0.001,0.0,0.0,0.0
24/05/2023,01:51:08,0.001,0.0,0.0,0.0
24/05/2023,01:52:08,0.000,0.0,0.0,0.0
24/05/2023,01:53:08,0.002,0.0,0.0,0.0
24/05/2023,01:54:08,0.001,0.0,0.0,0.0
24/05/2023,01:55:08,-0.000,0.0,0.0,0.0
24/05/2023,01:56:08,0.000,0.0,0.0,0.0
24/05/2023,01:57:07,0.002,0.0,0.0,0.0
24/05/2023,01:58:07,0.001,0.0,0.0,0.0
24/05/2023,01:59:08,0.001,0.0,0.0,0.0
24/05/2023,02:00:08,-0.000,0.0,0.0,0.0
24/05/2023,02:01:07,0.001,0.0,0.0,0.0
24/05/2023,02:02:08,0.001,0.0,0.0,0.0
24/05/2023,02:03:08,0.001,0.0,0.0,0.0
24/05/2023,02:04:08,0.001,0.0,0.0,0.0
24/05/2023,02:05:07,0.001,0.0,0.0,0.0
24/05/2023,02:06:08,0.001,0.0,0.0,0.0
24/05/2023,02:07:08,-0.000,0.0,0.0,0.0
24/05/2023,02:08:08,0.001,0.0,0.0,0.0
24/05/2023,02:09:07,0.001,0.0,0.0,0.0
24/05/2023,02:10:08,0.001,0.0,0.0,0.0
24/05/2023,02:11:08,0.002,0.0,0.0,0.0
24/05/2023,02:12:08,0.001,0.0,0.0,0.0
24/05/2023,02:13:08,0.000,0.0,0.0,0.0
24/05/2023,02:14:07,0.001,0.0,0.0,0.0
24/05/2023,02:15:08,0.001,0.0,0.0,0.0
24/05/2023,02:16:08,0.001,0.0,0.0,0.0
24/05/2023,02:17:08,0.001,0.0,0.0,0.0
24/05/2023,02:18:08,0.001,0.0,0.0,0.0
24/05/2023,02:19:07,0.001,0.0,0.0,0.0
24/05/2023,02:20:08,0.002,0.0,0.0,0.0
24/05/2023,02:21:08,0.001,0.0,0.0,0.0
24/05/2023,02:22:08,0.001,0.0,0.0,0.0
24/05/2023,02:23:08,0.002,0.0,0.0,0.0
24/05/2023,02:24:08,0.000,0.0,0.0,0.0
24/05/2023,02:25:08,0.001,0.0,0.0,0.0
24/05/2023,02:26:08,0.000,0.0,0.0,0.0
24/05/2023,02:27:08,0.001,0.0,0.0,0.0
24/05/2023,02:28:08,-0.000,0.0,0.0,0.0
24/05/2023,02:29:08,0.001,0.0,0.0,0.0
24/05/2023,02:30:08,0.002,0.0,0.0,0.0
24/05/2023,02:31:08,0.001,0.0,0.0,0.0
24/05/2023,02:32:08,0.001,0.0,0.0,0.0
24/05/2023,02:33:08,0.001,0.0,0.0,0.0
24/05/2023,02:34:08,0.001,0.0,0.0,0.0
24/05/2023,02:35:08,-0.000,0.0,0.0,0.0
24/05/2023,02:36:08,0.001,0.0,0.0,0.0
24/05/2023,02:37:08,0.002,0.0,0.0,0.0
24/05/2023,02:38:08,0.001,0.0,0.0,0.0
24/05/2023,02:39:08,0.001,0.0,0.0,0.0
24/05/2023,02:40:08,0.001,0.0,0.0,0.0
24/05/2023,02:41:08,0.001,0.0,0.0,0.0
24/05/2023,02:42:08,0.001,0.0,0.0,0.0
24/05/2023,02:43:08,0.002,0.0,0.0,0.0
24/05/2023,02:44:08,0.001,0.0,0.0,0.0
24/05/2023,02:45:08,0.001,0.0,0.0,0.0
24/05/2023,02:46:08,0.001,0.0,0.0,0.0
24/05/2023,02:47:08,0.001,0.0,0.0,0.0
24/05/2023,02:48:08,0.001,0.0,0.0,0.0
24/05/2023,02:49:07,0.001,0.0,0.0,0.0
24/05/2023,02:50:09,0.001,0.0,0.0,0.0
24/05/2023,02:51:08,0.002,0.0,0.0,0.0
24/05/2023,02:52:08,0.001,0.0,0.0,0.0
24/05/2023,02:53:08,0.002,0.0,0.0,0.0
24/05/2023,02:54:08,0.001,0.0,0.0,0.0
24/05/2023,02:55:08,0.002,0.0,0.0,0.0
24/05/2023,02:56:08,0.002,0.0,0.0,0.0
24/05/2023,02:57:08,0.002,0.0,0.0,0.0
24/05/2023,02:58:08,0.001,0.0,0.0,0.0
24/05/2023,02:59:08,0.001,0.0,0.0,0.0
24/05/2023,03:00:08,0.000,0.0,0.0,0.0
24/05/2023,03:01:08,0.002,0.0,0.0,0.0
24/05/2023,03:02:08,0.000,0.0,0.0,0.0
24/05/2023,03:03:08,0.001,0.0,0.0,0.0
24/05/2023,03:04:08,0.001,0.0,0.0,0.0
24/05/2023,03:05:08,0.001,0.0,0.0,0.0
24/05/2023,03:06:08,0.001,0.0,0.0,0.0
24/05/2023,03:07:08,-0.000,0.0,0.0,0.0
24/05/2023,03:08:08,0.001,0.0,0.0,0.0
24/05/2023,03:09:08,0.001,0.0,0.0,0.0
24/05/2023,03:10:08,0.001,0.0,0.0,0.0
24/05/2023,03:11:08,0.000,0.0,0.0,0.0
24/05/2023,03:12:08,0.001,0.0,0.0,0.0
24/05/2023,03:13:08,0.000,0.0,0.0,0.0
24/05/2023,03:14:08,0.001,0.0,0.0,0.0
24/05/2023,03:15:08,0.001,0.0,0.0,0.0
24/05/2023,03:16:08,0.001,0.0,0.0,0.0
24/05/2023,03:17:10,0.001,0.0,0.0,0.0
24/05/2023,03:18:08,0.001,0.0,0.0,0.0
24/05/2023,03:19:08,0.001,0.0,0.0,0.0
24/05/2023,03:20:08,0.001,0.0,0.0,0.0
24/05/2023,03:21:08,0.001,0.0,0.0,0.0
24/05/2023,03:22:08,0.000,0.0,0.0,0.0
24/05/2023,03:23:08,0.001,0.0,0.0,0.0
24/05/2023,03:24:08,0.001,0.0,0.0,0.0
24/05/2023,03:25:08,0.001,0.0,0.0,0.0
24/05/2023,03:26:08,0.002,0.0,0.0,0.0
24/05/2023,03:27:08,-0.001,0.0,0.0,0.0
24/05/2023,03:28:08,0.002,0.0,0.0,0.0
24/05/2023,03:29:08,0.001,0.0,0.0,0.0
24/05/2023,03:30:09,0.002,0.0,0.0,0.0
24/05/2023,03:31:08,0.001,0.0,0.0,0.0
24/05/2023,03:32:09,0.000,0.0,0.0,0.0
24/05/2023,03:33:08,0.000,0.0,0.0,0.0
24/05/2023,03:34:08,0.001,0.0,0.0,0.0
24/05/2023,03:35:08,0.001,0.0,0.0,0.0
24/05/2023,03:36:08,0.001,0.0,0.0,0.0
24/05/2023,03:37:08,0.001,0.0,0.0,0.0
24/05/2023,03:38:08,0.002,0.0,0.0,0.0
24/05/2023,03:39:08,0.001,0.0,0.0,0.0
24/05/2023,03:40:08,0.001,0.0,0.0,0.0
24/05/2023,03:41:08,0.002,0.0,0.0,0.0
24/05/2023,03:42:08,0.001,0.0,0.0,0.0
24/05/2023,03:43:08,0.002,0.0,0.0,0.0
24/05/2023,03:44:08,0.002,0.0,0.0,0.0
24/05/2023,03:45:08,0.001,0.0,0.0,0.0
24/05/2023,03:46:08,0.001,0.0,0.0,0.0
24/05/2023,03:47:08,0.001,0.0,0.0,0.0
24/05/2023,03:48:08,0.002,0.0,0.0,0.0
24/05/2023,03:49:08,0.002,0.0,0.0,0.0
24/05/2023,03:50:08,0.002,0.0,0.0,0.0
24/05/2023,03:51:08,0.002,0.0,0.0,0.0
24/05/2023,03:52:09,0.002,0.0,0.0,0.0
24/05/2023,03:53:08,0.002,0.0,0.0,0.0
24/05/2023,03:54:08,0.002,0.0,0.0,0.0
24/05/2023,03:55:07,0.002,0.0,0.0,0.0
24/05/2023,03:56:08,0.002,0.0,0.0,0.0
24/05/2023,03:57:08,0.003,0.0,0.0,0.0
24/05/2023,03:58:08,0.003,0.0,0.0,0.0
24/05/2023,03:59:08,0.003,0.0,0.0,0.0
24/05/2023,04:00:08,0.003,0.0,0.0,0.0
24/05/2023,04:01:08,0.003,0.0,0.0,0.0
24/05/2023,04:02:08,0.003,0.0,0.0,0.0
24/05/2023,04:03:08,0.004,0.0,0.0,0.0
24/05/2023,04:04:08,0.003,0.0,0.0,0.0
24/05/2023,04:05:08,0.003,0.0,0.0,0.0
24/05/2023,04:06:08,0.004,0.0,0.0,0.0
24/05/2023,04:07:08,0.003,0.0,0.0,0.0
24/05/2023,04:08:08,0.005,0.0,0.0,0.0
24/05/2023,04:09:08,0.004,0.0,0.0,0.0
24/05/2023,04:10:08,0.004,0.0,0.0,0.0
24/05/2023,04:11:08,0.004,0.0,0.0,0.0
24/05/2023,04:12:08,0.005,0.0,0.0,0.0
24/05/2023,04:13:08,0.005,0.0,0.0,0.0
24/05/2023,04:14:08,0.006,0.0,0.0,0.0
24/05/2023,04:15:08,0.005,0.0,0.0,0.0
24/05/2023,04:16:08,0.006,0.0,0.0,0.0
24/05/2023,04:17:08,0.007,0.0,0.0,0.0
24/05/2023,04:18:08,0.006,0.0,0.0,0.0
24/05/2023,04:19:09,0.006,0.0,0.0,0.0
24/05/2023,04:20:09,0.007,0.0,0.0,0.0
24/05/2023,04:21:08,0.007,0.0,0.0,0.0
24/05/2023,04:22:08,0.007,0.0,0.0,0.0
24/05/2023,04:23:08,0.007,0.0,0.001,0.001
24/05/2023,04:24:08,0.007,0.0,0.001,0.0
24/05/2023,04:25:08,0.008,0.0,0.001,0.0
24/05/2023,04:26:08,0.008,0.0,0.001,0.0
24/05/2023,04:27:08,0.007,0.0,0.001,0.0
24/05/2023,04:28:08,0.009,0.0,0.001,0.0
24/05/2023,04:29:08,0.010,0.0,0.001,0.0
24/05/2023,04:30:09,0.010,0.0,0.002,0.001
24/05/2023,04:31:08,0.010,0.0,0.002,0.0
24/05/2023,04:32:08,0.010,0.0,0.002,0.0
24/05/2023,04:33:08,0.011,0.0,0.002,0.0
24/05/2023,04:34:08,0.011,0.0,0.002,0.0
24/05/2023,04:35:08,0.012,0.0,0.002,0.0
24/05/2023,04:36:08,0.012,0.0,0.003,0.001
24/05/2023,04:37:08,0.012,0.0,0.003,0.0
24/05/2023,04:38:08,0.012,0.0,0.003,0.0
24/05/2023,04:39:08,0.012,0.0,0.003,0.0
24/05/2023,04:40:08,0.013,0.0,0.003,0.0
24/05/2023,04:41:09,0.014,0.0,0.004,0.001
24/05/2023,04:42:09,0.015,0.0,0.004,0.0
24/05/2023,04:43:08,0.015,0.0,0.004,0.0
24/05/2023,04:44:08,0.015,0.0,0.004,0.0
24/05/2023,04:45:08,0.017,0.0,0.005,0.001
24/05/2023,04:46:08,0.017,0.0,0.005,0.0
24/05/2023,04:47:09,0.019,0.0,0.005,0.0
24/05/2023,04:48:08,0.019,0.0,0.006,0.001
24/05/2023,04:49:08,0.019,0.0,0.006,0.0
24/05/2023,04:50:08,0.019,0.0,0.006,0.0
24/05/2023,04:51:08,0.020,0.0,0.007,0.001
24/05/2023,04:52:08,0.021,0.0,0.007,0.0
24/05/2023,04:53:08,0.021,0.0,0.007,0.0
24/05/2023,04:54:09,0.023,0.0,0.008,0.001
24/05/2023,04:55:09,0.023,0.0,0.008,0.0
24/05/2023,04:56:08,0.023,0.0,0.008,0.0
24/05/2023,04:57:08,0.025,0.0,0.009,0.001
24/05/2023,04:58:08,0.025,0.0,0.009,0.0
24/05/2023,04:59:08,0.025,0.0,0.01,0.001
24/05/2023,05:00:08,0.026,0.0,0.01,0.0
24/05/2023,05:01:08,0.026,0.0,0.01,0.0
24/05/2023,05:02:08,0.028,0.0,0.011,0.001
24/05/2023,05:03:08,0.029,0.0,0.011,0.0
24/05/2023,05:04:08,0.029,0.0,0.012,0.001
24/05/2023,05:05:08,0.030,0.0,0.012,0.0
24/05/2023,05:06:08,0.031,0.0,0.013,0.001
24/05/2023,05:07:08,0.032,0.0,0.013,0.0
24/05/2023,05:08:08,0.032,0.0,0.014,0.001
24/05/2023,05:09:08,0.034,0.0,0.014,0.0
24/05/2023,05:10:08,0.035,0.0,0.015,0.001
24/05/2023,05:11:08,0.036,0.0,0.016,0.001
24/05/2023,05:12:09,0.037,0.0,0.016,0.0
24/05/2023,05:13:08,0.039,0.0,0.017,0.001
24/05/2023,05:14:08,0.039,0.0,0.018,0.001
24/05/2023,05:15:08,0.040,0.0,0.018,0.0
24/05/2023,05:16:08,0.041,0.0,0.019,0.001
24/05/2023,05:17:08,0.041,0.0,0.02,0.001
24/05/2023,05:18:09,0.043,0.0,0.02,0.0
24/05/2023,05:19:08,0.045,0.0,0.021,0.001
24/05/2023,05:20:08,0.045,0.0,0.022,0.001
24/05/2023,05:21:08,0.047,0.0,0.023,0.001
24/05/2023,05:22:08,0.048,0.0,0.023,0.0
24/05/2023,05:23:08,0.049,0.0,0.024,0.001
24/05/2023,05:24:08,0.051,0.0,0.025,0.001
24/05/2023,05:25:08,0.052,0.0,0.026,0.001
24/05/2023,05:26:08,0.053,0.0,0.027,0.001
24/05/2023,05:27:08,0.055,0.0,0.028,0.001
24/05/2023,05:28:09,0.057,0.0,0.029,0.001
24/05/2023,05:29:08,0.058,0.0,0.029,0.0
24/05/2023,05:30:08,0.059,0.0,0.03,0.001
24/05/2023,05:31:09,0.061,0.0,0.031,0.001
24/05/2023,05:32:08,0.062,0.0,0.032,0.001
24/05/2023,05:33:08,0.064,0.0,0.034,0.002
24/05/2023,05:34:12,0.066,0.0,0.035,0.001
24/05/2023,05:35:09,0.067,0.0,0.036,0.001
24/05/2023,05:36:09,0.069,0.0,0.037,0.001
24/05/2023,05:37:09,0.070,0.0,0.038,0.001
24/05/2023,05:38:08,0.070,0.0,0.039,0.001
24/05/2023,05:39:08,0.073,0.0,0.04,0.001
24/05/2023,05:40:08,0.074,0.0,0.042,0.002
24/05/2023,05:41:08,0.074,0.0,0.043,0.001
24/05/2023,05:42:08,0.077,0.0,0.044,0.001
24/05/2023,05:43:09,0.079,0.0,0.045,0.001
24/05/2023,05:44:08,0.081,0.0,0.047,0.002
24/05/2023,05:45:09,0.083,0.0,0.048,0.001
24/05/2023,05:46:09,0.084,0.0,0.049,0.001
24/05/2023,05:47:08,0.086,0.0,0.051,0.002
24/05/2023,05:48:08,0.088,0.0,0.052,0.001
24/05/2023,05:49:08,0.091,0.0,0.054,0.002
24/05/2023,05:50:08,0.093,0.0,0.055,0.001
24/05/2023,05:51:08,0.096,0.0,0.057,0.002
24/05/2023,05:52:08,0.099,0.0,0.059,0.002
24/05/2023,05:53:08,0.102,0.0,0.06,0.001
24/05/2023,05:54:08,0.105,0.0,0.062,0.002
24/05/2023,05:55:08,0.107,0.0,0.064,0.002
24/05/2023,05:56:08,0.110,0.0,0.066,0.002
24/05/2023,05:57:08,0.113,0.0,0.067,0.001
24/05/2023,05:58:08,0.115,0.0,0.069,0.002
24/05/2023,05:59:09,0.118,0.0,0.071,0.002
24/05/2023,06:00:09,0.121,0.0,0.073,0.002
24/05/2023,06:01:09,0.124,0.0,0.075,0.002
24/05/2023,06:02:08,0.125,0.0,0.077,0.002
24/05/2023,06:03:08,0.129,0.0,0.08,0.003
24/05/2023,06:04:08,0.132,0.0,0.082,0.002
24/05/2023,06:05:09,0.136,0.0,0.084,0.002
24/05/2023,06:06:08,0.139,0.0,0.086,0.002
24/05/2023,06:07:08,0.142,0.0,0.089,0.003
24/05/2023,06:08:08,0.145,0.0,0.091,0.002
24/05/2023,06:09:08,0.149,0.0,0.093,0.002
24/05/2023,06:10:08,0.151,0.0,0.096,0.003
24/05/2023,06:11:08,0.155,0.0,0.098,0.002
24/05/2023,06:12:08,0.159,0.0,0.101,0.003
24/05/2023,06:13:08,0.161,0.0,0.104,0.003
24/05/2023,06:14:09,0.164,0.0,0.106,0.002
24/05/2023,06:15:09,0.168,0.0,0.109,0.003
24/05/2023,06:16:08,0.171,0.0,0.112,0.003
24/05/2023,06:17:09,0.173,0.0,0.115,0.003
24/05/2023,06:18:09,0.177,0.0,0.118,0.003
24/05/2023,06:19:09,0.180,0.0,0.121,0.003
24/05/2023,06:20:09,0.183,0.0,0.124,0.003
24/05/2023,06:21:09,0.186,0.0,0.127,0.003
24/05/2023,06:22:08,0.189,0.0,0.13,0.003
24/05/2023,06:23:08,0.191,0.0,0.133,0.003
24/05/2023,06:24:09,0.196,0.0,0.136,0.003
24/05/2023,06:25:08,0.199,0.0,0.14,0.004
24/05/2023,06:26:08,0.202,0.0,0.143,0.003
24/05/2023,06:27:08,0.198,0.0,0.146,0.003
24/05/2023,06:28:08,0.203,0.0,0.15,0.004
24/05/2023,06:29:08,0.195,0.0,0.153,0.003
24/05/2023,06:30:08,0.197,0.0,0.156,0.003
24/05/2023,06:31:08,0.200,0.0,0.16,0.004
24/05/2023,06:32:08,0.212,0.0,0.163,0.003
24/05/2023,06:33:09,0.224,1.0,0.167,0.004
24/05/2023,06:34:09,0.210,0.0,0.17,0.003
24/05/2023,06:35:08,0.233,1.0,0.174,0.004
24/05/2023,06:36:08,0.235,1.0,0.178,0.004
24/05/2023,06:37:08,0.214,0.0,0.182,0.004
24/05/2023,06:38:08,0.234,1.0,0.185,0.003
24/05/2023,06:39:08,0.245,1.0,0.189,0.004
24/05/2023,06:40:08,0.223,1.0,0.193,0.004
24/05/2023,06:41:08,0.223,1.0,0.197,0.004
24/05/2023,06:42:09,0.236,1.0,0.201,0.004
24/05/2023,06:43:08,0.232,1.0,0.205,0.004
24/05/2023,06:44:09,0.237,1.0,0.209,0.004
24/05/2023,06:45:08,0.252,1.0,0.213,0.004
24/05/2023,06:46:08,0.250,1.0,0.217,0.004
24/05/2023,06:47:09,0.277,1.0,0.221,0.004
24/05/2023,06:48:09,0.276,1.0,0.226,0.005
24/05/2023,06:49:09,0.261,1.0,0.23,0.004
24/05/2023,06:50:09,0.271,1.0,0.235,0.005
24/05/2023,06:51:08,0.260,1.0,0.239,0.004
24/05/2023,06:52:08,0.290,1.0,0.244,0.005
24/05/2023,06:53:08,0.301,1.0,0.249,0.005
24/05/2023,06:54:09,0.273,1.0,0.253,0.004
24/05/2023,06:55:09,0.276,1.0,0.258,0.005
24/05/2023,06:56:08,0.316,1.0,0.263,0.005
24/05/2023,06:57:08,0.288,1.0,0.268,0.005
24/05/2023,06:58:08,0.291,1.0,0.273,0.005
24/05/2023,06:59:08,0.298,1.0,0.278,0.005
24/05/2023,07:00:08,0.312,1.0,0.283,0.005
24/05/2023,07:01:08,0.365,1.0,0.289,0.006
24/05/2023,07:02:09,0.360,1.0,0.294,0.005
24/05/2023,07:03:08,0.359,1.0,0.3,0.006
24/05/2023,07:04:09,0.325,1.0,0.306,0.006
24/05/2023,07:05:08,0.340,1.0,0.312,0.006
24/05/2023,07:06:08,0.355,1.0,0.318,0.006
24/05/2023,07:07:08,0.332,1.0,0.323,0.005
24/05/2023,07:08:08,0.351,1.0,0.329,0.006
24/05/2023,07:09:08,0.344,1.0,0.335,0.006
24/05/2023,07:10:09,0.402,1.0,0.341,0.006
24/05/2023,07:11:08,0.350,1.0,0.348,0.007
24/05/2023,07:12:09,0.368,1.0,0.354,0.006
24/05/2023,07:13:09,0.385,1.0,0.36,0.006
24/05/2023,07:14:08,0.399,1.0,0.367,0.007
24/05/2023,07:15:08,0.401,1.0,0.373,0.006
24/05/2023,07:16:09,0.381,1.0,0.38,0.007
24/05/2023,07:17:08,0.467,1.0,0.387,0.007
24/05/2023,07:18:09,0.397,1.0,0.394,0.007
24/05/2023,07:19:08,0.419,1.0,0.401,0.007
24/05/2023,07:20:09,0.492,1.0,0.408,0.007
24/05/2023,07:21:09,0.418,1.0,0.416,0.008
24/05/2023,07:22:09,0.506,1.0,0.424,0.008
24/05/2023,07:23:09,0.417,1.0,0.432,0.008
24/05/2023,07:24:09,0.426,1.0,0.439,0.007
24/05/2023,07:25:08,0.416,1.0,0.446,0.007
24/05/2023,07:26:08,0.421,1.0,0.453,0.007
24/05/2023,07:27:08,0.521,1.0,0.461,0.008
24/05/2023,07:28:09,0.446,1.0,0.468,0.007
24/05/2023,07:29:08,0.535,1.0,0.476,0.008
24/05/2023,07:30:08,0.436,1.0,0.484,0.008
24/05/2023,07:31:08,0.443,1.0,0.491,0.007
24/05/2023,07:32:09,0.436,1.0,0.499,0.008
24/05/2023,07:33:08,0.438,1.0,0.506,0.007
24/05/2023,07:34:09,0.435,1.0,0.514,0.008
24/05/2023,07:35:09,0.437,1.0,0.521,0.007
24/05/2023,07:36:08,0.468,1.0,0.529,0.008
24/05/2023,07:37:08,0.447,1.0,0.536,0.007
24/05/2023,07:38:08,0.462,1.0,0.544,0.008
24/05/2023,07:39:09,0.457,1.0,0.552,0.008
24/05/2023,07:40:09,0.474,1.0,0.56,0.008
24/05/2023,07:41:09,0.475,1.0,0.568,0.008
24/05/2023,07:42:08,0.522,1.0,0.576,0.008
24/05/2023,07:43:08,0.581,1.0,0.585,0.009
24/05/2023,07:44:09,0.578,1.0,0.594,0.009
24/05/2023,07:45:09,0.501,1.0,0.602,0.008
24/05/2023,07:46:09,0.568,1.0,0.611,0.009
24/05/2023,07:47:08,0.662,2.0,0.621,0.01
24/05/2023,07:48:08,0.689,2.0,0.632,0.011
24/05/2023,07:49:08,0.705,2.0,0.642,0.01
24/05/2023,07:50:09,0.716,2.0,0.654,0.012
24/05/2023,07:51:09,0.722,2.0,0.666,0.012
24/05/2023,07:52:09,0.729,2.0,0.678,0.012
24/05/2023,07:53:08,0.677,2.0,0.69,0.012
24/05/2023,07:54:09,0.694,2.0,0.701,0.011
24/05/2023,07:55:09,0.755,2.0,0.713,0.012
24/05/2023,07:56:09,0.754,2.0,0.725,0.012
24/05/2023,07:57:09,0.679,2.0,0.737,0.012
24/05/2023,07:58:09,0.760,2.0,0.749,0.012
24/05/2023,07:59:08,0.771,2.0,0.762,0.013
24/05/2023,08:00:08,0.777,2.0,0.775,0.013
24/05/2023,08:01:08,0.784,2.0,0.788,0.013
24/05/2023,08:02:09,0.795,2.0,0.801,0.013
24/05/2023,08:03:09,0.804,2.0,0.814,0.013
24/05/2023,08:04:09,0.811,2.0,0.828,0.014
24/05/2023,08:05:09,0.819,2.0,0.841,0.013
24/05/2023,08:06:08,0.828,2.0,0.855,0.014
24/05/2023,08:07:09,0.838,2.0,0.869,0.014
24/05/2023,08:08:09,0.845,2.0,0.883,0.014
24/05/2023,08:09:09,0.852,2.0,0.897,0.014
24/05/2023,08:10:08,0.858,2.0,0.911,0.014
24/05/2023,08:11:08,0.865,2.0,0.926,0.015
24/05/2023,08:12:08,0.872,2.0,0.94,0.014
24/05/2023,08:13:08,0.885,2.0,0.955,0.015
24/05/2023,08:14:09,0.895,2.0,0.97,0.015
24/05/2023,08:15:09,0.914,2.0,0.985,0.015
24/05/2023,08:16:09,0.933,2.0,1.0,0.015
24/05/2023,08:17:37,0.951,2.0,1.024,0.024
24/05/2023,08:19:08,0.962,2.0,1.047,0.023
24/05/2023,08:20:09,0.743,2.0,1.061,0.014
24/05/2023,08:21:08,0.856,2.0,1.075,0.014
24/05/2023,08:22:09,0.767,2.0,1.089,0.014
24/05/2023,08:23:09,0.702,2.0,1.101,0.012
24/05/2023,08:24:08,0.967,2.0,1.114,0.013
24/05/2023,08:25:09,0.937,2.0,1.13,0.016
24/05/2023,08:26:09,0.718,2.0,1.145,0.015
24/05/2023,08:27:09,0.727,2.0,1.157,0.012
24/05/2023,08:28:09,0.967,2.0,1.171,0.014
24/05/2023,08:29:08,1.003,2.0,1.188,0.017
24/05/2023,08:30:09,1.021,2.0,1.205,0.017
24/05/2023,08:31:08,1.035,2.0,1.222,0.017
24/05/2023,08:32:09,1.055,2.0,1.239,0.017
24/05/2023,08:33:09,1.066,2.0,1.257,0.018
24/05/2023,08:34:09,1.081,2.0,1.275,0.018
24/05/2023,08:35:09,1.093,3.0,1.293,0.018
24/05/2023,08:36:09,1.093,3.0,1.311,0.018
24/05/2023,08:37:08,1.092,3.0,1.329,0.018
24/05/2023,08:38:08,1.105,3.0,1.347,0.018
24/05/2023,08:39:09,1.120,3.0,1.366,0.019
24/05/2023,08:40:08,1.124,3.0,1.385,0.019
24/05/2023,08:41:08,1.146,3.0,1.403,0.018
24/05/2023,08:42:08,1.159,3.0,1.422,0.019
24/05/2023,08:43:09,1.166,3.0,1.442,0.02
24/05/2023,08:44:09,1.162,3.0,1.461,0.019
24/05/2023,08:45:08,1.176,3.0,1.48,0.019
24/05/2023,08:46:08,1.186,3.0,1.5,0.02
24/05/2023,08:47:08,1.183,3.0,1.52,0.02
24/05/2023,08:48:08,1.190,3.0,1.54,0.02
24/05/2023,08:49:08,1.197,3.0,1.559,0.019
24/05/2023,08:50:09,1.053,2.0,1.578,0.019
24/05/2023,08:51:09,0.894,2.0,1.597,0.019
24/05/2023,08:52:09,1.221,3.0,1.613,0.016
24/05/2023,08:53:08,1.236,3.0,1.633,0.02
24/05/2023,08:54:09,1.259,3.0,1.654,0.021
24/05/2023,08:55:08,1.274,3.0,1.675,0.021
24/05/2023,08:56:09,1.263,3.0,1.696,0.021
24/05/2023,08:57:08,1.269,3.0,1.717,0.021
24/05/2023,08:58:08,1.089,3.0,1.735,0.018
24/05/2023,08:59:08,0.994,2.0,1.754,0.019
24/05/2023,09:00:09,0.965,2.0,1.772,0.018
24/05/2023,09:01:09,1.077,2.0,1.789,0.017
24/05/2023,09:02:09,1.305,3.0,1.805,0.016
24/05/2023,09:03:09,1.187,3.0,1.827,0.022
24/05/2023,09:04:08,0.928,2.0,1.843,0.016
24/05/2023,09:05:09,1.118,3.0,1.862,0.019
24/05/2023,09:06:09,0.985,2.0,1.88,0.018
24/05/2023,09:07:08,0.926,2.0,1.896,0.016
24/05/2023,09:08:08,1.339,3.0,1.915,0.019
24/05/2023,09:09:09,1.358,3.0,1.937,0.022
24/05/2023,09:10:09,1.399,3.0,1.96,0.023
24/05/2023,09:11:09,1.430,3.0,1.984,0.024
24/05/2023,09:12:08,1.448,3.0,2.008,0.024
24/05/2023,09:13:09,1.462,3.0,2.032,0.024
24/05/2023,09:14:08,1.475,3.0,2.056,0.024
24/05/2023,09:15:08,1.482,3.0,2.081,0.025
24/05/2023,09:16:08,1.451,3.0,2.105,0.024
24/05/2023,09:17:08,1.177,3.0,2.128,0.023
24/05/2023,09:18:09,1.381,3.0,2.148,0.02
24/05/2023,09:19:09,1.455,3.0,2.172,0.024
24/05/2023,09:20:08,1.510,3.0,2.196,0.024
24/05/2023,09:21:08,1.531,4.0,2.222,0.026
24/05/2023,09:22:08,1.094,3.0,2.246,0.024
24/05/2023,09:23:09,1.449,3.0,2.266,0.02
24/05/2023,09:24:09,1.525,4.0,2.29,0.024
24/05/2023,09:25:08,1.565,4.0,2.315,0.025
24/05/2023,09:26:09,1.555,4.0,2.341,0.026
24/05/2023,09:27:09,1.478,3.0,2.367,0.026
24/05/2023,09:28:09,1.343,3.0,2.391,0.024
24/05/2023,09:29:08,1.585,4.0,2.416,0.025
24/05/2023,09:30:09,1.606,4.0,2.442,0.026
24/05/2023,09:31:08,1.605,4.0,2.469,0.027
24/05/2023,09:32:09,1.427,3.0,2.495,0.026
24/05/2023,09:33:08,1.471,3.0,2.518,0.023
24/05/2023,09:34:09,1.001,2.0,2.536,0.018
24/05/2023,09:35:09,0.978,2.0,2.553,0.017
24/05/2023,09:36:09,1.041,2.0,2.572,0.019
24/05/2023,09:37:09,0.950,2.0,2.588,0.016
24/05/2023,09:38:09,0.960,2.0,2.604,0.016
24/05/2023,09:39:08,0.975,2.0,2.62,0.016
24/05/2023,09:40:09,1.042,2.0,2.637,0.017
24/05/2023,09:41:08,1.061,2.0,2.654,0.017
24/05/2023,09:42:08,1.454,3.0,2.676,0.022
24/05/2023,09:43:08,1.628,4.0,2.703,0.027
24/05/2023,09:44:08,1.627,4.0,2.726,0.023
24/05/2023,09:45:09,1.676,4.0,2.754,0.028
24/05/2023,09:46:09,1.676,4.0,2.782,0.028
24/05/2023,09:47:08,1.699,4.0,2.81,0.028
24/05/2023,09:48:09,1.701,4.0,2.838,0.028
24/05/2023,09:49:09,1.715,4.0,2.867,0.029
24/05/2023,09:50:09,1.740,4.0,2.897,0.03
24/05/2023,09:51:08,1.754,4.0,2.925,0.028
24/05/2023,09:52:09,1.768,4.0,2.954,0.029
24/05/2023,09:53:08,1.755,4.0,2.984,0.03
24/05/2023,09:54:09,1.751,4.0,3.012,0.028
24/05/2023,09:55:09,1.789,4.0,3.042,0.03
24/05/2023,09:56:09,1.787,4.0,3.072,0.03
24/05/2023,09:57:09,1.817,4.0,3.103,0.031
24/05/2023,09:58:09,1.783,4.0,3.132,0.029
24/05/2023,09:59:09,1.159,3.0,3.155,0.023